Time,TemperatureF,DewpointF,PressureIn,WindDirection,WindDirectionDegrees,WindSpeedMPH,WindSpeedGustMPH,Humidity,HourlyPrecipIn,Conditions,Clouds,dailyrainin,SolarRadiationWatts/m^2,SoftwareType,DateUTC
2013-05-11 00:03:00,73.0,64.0,-100.00,East,100,12.0,17.0,74,0.00,,,0.00,0.000000,,2013-05-11 10:03:00,
2013-05-11 00:12:00,73.0,64.0,-100.00,East,100,12.0,17.0,74,0.00,,,0.00,0.000000,,2013-05-11 10:12:00,
2013-05-11 00:22:00,73.0,64.0,-100.00,East,100,12.0,17.0,74,0.00,,,0.00,0.000000,,2013-05-11 10:22:00,
2013-05-11 00:32:00,73.0,64.0,-100.00,East,100,12.0,17.0,74,0.00,,,0.00,0.000000,,2013-05-11 10:32:00,
2013-05-11 01:02:00,74.0,71.0,-100.00,ENE,62,4.0,14.0,89,0.00,,,-99.99,0.000000,,2013-05-11 11:02:00,
2013-05-11 01:11:00,74.0,71.0,-100.00,ENE,62,4.0,14.0,89,0.00,,,-99.99,0.000000,,2013-05-11 11:11:00,
2013-05-11 01:21:00,74.0,71.0,-100.00,ENE,62,4.0,14.0,89,0.00,,,-99.99,0.000000,,2013-05-11 11:21:00,
2013-05-11 01:31:00,74.0,71.0,-100.00,ENE,62,4.0,14.0,89,0.00,,,-99.99,0.000000,,2013-05-11 11:31:00,
2013-05-11 02:01:00,73.0,70.0,-100.00,East,88,0.0,5.0,91,0.00,,,-99.99,0.000000,,2013-05-11 12:01:00,
2013-05-11 02:11:00,73.0,70.0,-100.00,East,88,0.0,5.0,91,0.00,,,-99.99,0.000000,,2013-05-11 12:11:00,
2013-05-11 02:21:00,73.0,70.0,-100.00,East,88,0.0,5.0,91,0.00,,,-99.99,0.000000,,2013-05-11 12:21:00,
2013-05-11 02:32:00,73.0,70.0,-100.00,East,88,0.0,5.0,91,0.00,,,-99.99,0.000000,,2013-05-11 12:32:00,
2013-05-11 03:01:00,73.0,70.0,-100.00,NNE,32,0.0,4.0,90,0.00,,,-99.99,0.000000,,2013-05-11 13:01:00,
2013-05-11 03:11:00,73.0,70.0,-100.00,NNE,32,0.0,4.0,90,0.00,,,-99.99,0.000000,,2013-05-11 13:11:00,
2013-05-11 03:21:00,73.0,70.0,-100.00,NNE,32,0.0,4.0,90,0.00,,,-99.99,0.000000,,2013-05-11 13:21:00,
2013-05-11 03:31:00,73.0,70.0,-100.00,NNE,32,0.0,4.0,90,0.00,,,-99.99,0.000000,,2013-05-11 13:31:00,
2013-05-11 04:02:00,73.0,68.0,-100.00,ENE,71,7.0,10.0,83,0.00,,,0.00,0.000000,,2013-05-11 14:02:00,
2013-05-11 04:11:00,73.0,68.0,-100.00,ENE,71,7.0,10.0,83,0.00,,,0.00,0.000000,,2013-05-11 14:11:00,
2013-05-11 04:21:00,73.0,68.0,-100.00,ENE,71,7.0,10.0,83,0.00,,,0.00,0.000000,,2013-05-11 14:21:00,
2013-05-11 04:32:00,73.0,68.0,-100.00,ENE,71,7.0,10.0,83,0.00,,,0.00,0.000000,,2013-05-11 14:32:00,
2013-05-11 05:01:00,72.0,66.0,-100.00,ESE,107,7.0,10.0,82,0.00,,,0.00,0.000000,,2013-05-11 15:01:00,
2013-05-11 05:11:00,72.0,66.0,-100.00,ESE,107,7.0,10.0,82,0.00,,,0.00,0.000000,,2013-05-11 15:11:00,
2013-05-11 05:21:00,72.0,66.0,-100.00,ESE,107,7.0,10.0,82,0.00,,,0.00,0.000000,,2013-05-11 15:21:00,
2013-05-11 05:32:00,72.0,66.0,-100.00,ESE,107,7.0,10.0,82,0.00,,,0.00,0.000000,,2013-05-11 15:32:00,
2013-05-11 06:02:00,71.0,67.0,-100.00,East,96,8.0,10.0,87,0.00,,,0.00,0.000000,,2013-05-11 16:02:00,
2013-05-11 06:12:00,71.0,67.0,-100.00,East,96,8.0,10.0,87,0.00,,,0.00,0.000000,,2013-05-11 16:12:00,
2013-05-11 06:22:00,71.0,67.0,-100.00,East,96,8.0,10.0,87,0.00,,,0.00,0.000000,,2013-05-11 16:22:00,
2013-05-11 06:32:00,71.0,67.0,-100.00,East,96,8.0,10.0,87,0.00,,,0.00,0.000000,,2013-05-11 16:32:00,
2013-05-11 07:02:00,73.0,64.0,-100.00,East,96,10.0,15.0,73,0.00,,,0.00,36.000000,,2013-05-11 17:02:00,
2013-05-11 07:12:00,73.0,64.0,-100.00,East,96,10.0,15.0,73,0.00,,,0.00,36.000000,,2013-05-11 17:12:00,
2013-05-11 07:22:00,73.0,64.0,-100.00,East,96,10.0,15.0,73,0.00,,,0.00,36.000000,,2013-05-11 17:22:00,
2013-05-11 07:31:00,73.0,64.0,-100.00,East,96,10.0,15.0,73,0.00,,,0.00,36.000000,,2013-05-11 17:31:00,
2013-05-11 08:01:00,77.0,65.0,-100.00,ENE,65,10.0,15.0,67,0.00,,,0.00,233.000000,,2013-05-11 18:01:00,
2013-05-11 08:11:00,77.0,65.0,-100.00,ENE,65,10.0,15.0,67,0.00,,,0.00,233.000000,,2013-05-11 18:11:00,
2013-05-11 08:21:00,77.0,65.0,-100.00,ENE,65,10.0,15.0,67,0.00,,,0.00,233.000000,,2013-05-11 18:21:00,
2013-05-11 08:32:00,77.0,65.0,-100.00,ENE,65,10.0,15.0,67,0.00,,,0.00,233.000000,,2013-05-11 18:32:00,
2013-05-11 09:02:00,79.0,69.0,-100.00,North,350,5.0,20.0,71,0.00,,,0.00,467.000000,,2013-05-11 19:02:00,
2013-05-11 09:11:00,79.0,69.0,-100.00,North,350,5.0,20.0,71,0.00,,,0.00,467.000000,,2013-05-11 19:11:00,
2013-05-11 09:21:00,79.0,69.0,-100.00,North,350,5.0,20.0,71,0.00,,,0.00,467.000000,,2013-05-11 19:21:00,
2013-05-11 09:32:00,79.0,69.0,-100.00,North,350,5.0,20.0,71,0.00,,,0.00,467.000000,,2013-05-11 19:32:00,
2013-05-11 10:01:00,79.0,70.0,-100.00,WNW,289,8.0,14.0,73,0.00,,,0.00,614.000000,,2013-05-11 20:01:00,
2013-05-11 10:12:00,79.0,70.0,-100.00,WNW,289,8.0,14.0,73,0.00,,,0.00,614.000000,,2013-05-11 20:12:00,
2013-05-11 10:22:00,79.0,70.0,-100.00,WNW,289,8.0,14.0,73,0.00,,,0.00,614.000000,,2013-05-11 20:22:00,
2013-05-11 10:32:00,79.0,70.0,-100.00,WNW,289,8.0,14.0,73,0.00,,,0.00,614.000000,,2013-05-11 20:32:00,
2013-05-11 11:02:00,81.0,71.0,-100.00,West,271,8.0,12.0,71,0.00,,,0.00,703.000000,,2013-05-11 21:02:00,
2013-05-11 11:11:00,81.0,71.0,-100.00,West,271,8.0,12.0,71,0.00,,,0.00,703.000000,,2013-05-11 21:11:00,
2013-05-11 11:21:00,81.0,71.0,-100.00,West,271,8.0,12.0,71,0.00,,,0.00,703.000000,,2013-05-11 21:21:00,
2013-05-11 11:33:00,81.0,71.0,-100.00,West,271,8.0,12.0,71,0.00,,,0.00,703.000000,,2013-05-11 21:33:00,
2013-05-11 12:02:00,83.0,69.0,-100.00,WNW,302,7.0,13.0,63,0.00,,,0.00,702.000000,,2013-05-11 22:02:00,
2013-05-11 12:12:00,83.0,69.0,-100.00,WNW,302,7.0,13.0,63,0.00,,,0.00,702.000000,,2013-05-11 22:12:00,
2013-05-11 12:22:00,83.0,69.0,-100.00,WNW,302,7.0,13.0,63,0.00,,,0.00,702.000000,,2013-05-11 22:22:00,
2013-05-11 12:33:00,83.0,69.0,-100.00,WNW,302,7.0,13.0,63,0.00,,,0.00,702.000000,,2013-05-11 22:33:00,
2013-05-11 13:02:00,80.0,67.0,-100.00,WSW,252,9.0,15.0,65,0.00,,,0.00,546.000000,,2013-05-11 23:02:00,
2013-05-11 13:11:00,80.0,67.0,-100.00,WSW,252,9.0,15.0,65,0.00,,,0.00,546.000000,,2013-05-11 23:11:00,
2013-05-11 13:22:00,80.0,67.0,-100.00,WSW,252,9.0,15.0,65,0.00,,,0.00,546.000000,,2013-05-11 23:22:00,
2013-05-11 13:31:00,80.0,67.0,-100.00,WSW,252,9.0,15.0,65,0.00,,,0.00,546.000000,,2013-05-11 23:31:00,
2013-05-11 14:01:00,77.0,71.0,-100.00,West,280,7.0,13.0,82,0.06,,,0.06,142.000000,,2013-05-12 00:01:00,
2013-05-11 14:11:00,77.0,71.0,-100.00,West,280,7.0,13.0,82,0.06,,,0.06,142.000000,,2013-05-12 00:11:00,
2013-05-11 14:21:00,77.0,71.0,-100.00,West,280,7.0,13.0,82,0.06,,,0.06,142.000000,,2013-05-12 00:21:00,
2013-05-11 14:32:00,77.0,71.0,-100.00,West,280,7.0,13.0,82,0.06,,,0.06,142.000000,,2013-05-12 00:32:00,
2013-05-11 15:01:00,76.0,69.0,-100.00,West,276,8.0,13.0,80,0.01,,,0.07,119.000000,,2013-05-12 01:01:00,
2013-05-11 15:11:00,76.0,69.0,-100.00,West,276,8.0,13.0,80,0.01,,,0.07,119.000000,,2013-05-12 01:11:00,
2013-05-11 15:21:00,76.0,69.0,-100.00,West,276,8.0,13.0,80,0.01,,,0.07,119.000000,,2013-05-12 01:21:00,
2013-05-11 15:31:00,76.0,69.0,-100.00,West,276,8.0,13.0,80,0.01,,,0.07,119.000000,,2013-05-12 01:31:00,
2013-05-11 16:01:00,78.0,69.0,-100.00,WNW,288,5.0,10.0,75,0.00,,,0.07,174.000000,,2013-05-12 02:01:00,
2013-05-11 16:11:00,78.0,69.0,-100.00,WNW,288,5.0,10.0,75,0.00,,,0.07,174.000000,,2013-05-12 02:11:00,
2013-05-11 16:22:00,78.0,69.0,-100.00,WNW,288,5.0,10.0,75,0.00,,,0.07,174.000000,,2013-05-12 02:22:00,
2013-05-11 16:31:00,78.0,69.0,-100.00,WNW,288,5.0,10.0,75,0.00,,,0.07,174.000000,,2013-05-12 02:31:00,
2013-05-11 17:01:00,78.0,68.0,-100.00,WNW,291,5.0,13.0,72,0.00,,,0.07,176.000000,,2013-05-12 03:01:00,
2013-05-11 17:11:00,78.0,68.0,-100.00,WNW,291,5.0,13.0,72,0.00,,,0.07,176.000000,,2013-05-12 03:11:00,
2013-05-11 17:21:00,78.0,68.0,-100.00,WNW,291,5.0,13.0,72,0.00,,,0.07,176.000000,,2013-05-12 03:21:00,
2013-05-11 17:32:00,78.0,68.0,-100.00,WNW,291,5.0,13.0,72,0.00,,,0.07,176.000000,,2013-05-12 03:32:00,
2013-05-11 18:02:00,-999.0,-99.9,-100.00,West,271,3.0,7.0,77,0.00,,,0.07,72.000000,,2013-05-12 04:02:00,
2013-05-11 18:12:00,77.0,69.0,-100.00,West,271,3.0,7.0,77,0.00,,,0.07,72.000000,,2013-05-12 04:12:00,
2013-05-11 18:22:00,77.0,69.0,-100.00,West,271,3.0,7.0,77,0.00,,,0.07,72.000000,,2013-05-12 04:22:00,
2013-05-11 18:32:00,77.0,69.0,-100.00,West,271,3.0,7.0,77,0.00,,,0.07,72.000000,,2013-05-12 04:32:00,
2013-05-11 19:02:00,75.0,68.0,-100.00,East,83,8.0,12.0,79,0.01,,,0.08,73.000000,,2013-05-12 05:02:00,
2013-05-11 19:11:00,75.0,68.0,-100.00,East,83,8.0,12.0,79,0.01,,,0.08,73.000000,,2013-05-12 05:11:00,
2013-05-11 19:21:00,75.0,68.0,-100.00,East,83,8.0,12.0,79,0.01,,,0.08,73.000000,,2013-05-12 05:21:00,
2013-05-11 19:31:00,75.0,68.0,-100.00,East,83,8.0,12.0,79,0.01,,,0.08,73.000000,,2013-05-12 05:31:00,
2013-05-11 20:01:00,73.0,65.0,-100.00,ENE,78,12.0,21.0,75,0.00,,,0.08,2.000000,,2013-05-12 06:01:00,
2013-05-11 20:11:00,73.0,65.0,-100.00,ENE,78,12.0,21.0,75,0.00,,,0.08,2.000000,,2013-05-12 06:11:00,
2013-05-11 20:21:00,73.0,65.0,-100.00,ENE,78,12.0,21.0,75,0.00,,,0.08,2.000000,,2013-05-12 06:21:00,
2013-05-11 20:31:00,73.0,65.0,-100.00,ENE,78,12.0,21.0,75,0.00,,,0.08,2.000000,,2013-05-12 06:31:00,
2013-05-11 21:01:00,74.0,66.0,-100.00,ENE,70,12.0,19.0,77,0.00,,,0.08,0.000000,,2013-05-12 07:01:00,
2013-05-11 21:11:00,74.0,66.0,-100.00,ENE,70,12.0,19.0,77,0.00,,,0.08,0.000000,,2013-05-12 07:11:00,
2013-05-11 21:21:00,74.0,66.0,-100.00,ENE,70,12.0,19.0,77,0.00,,,0.08,0.000000,,2013-05-12 07:21:00,
2013-05-11 21:32:00,74.0,66.0,-100.00,ENE,70,12.0,19.0,77,0.00,,,0.08,0.000000,,2013-05-12 07:32:00,
2013-05-11 22:02:00,73.0,66.0,-100.00,East,93,12.0,18.0,78,0.00,,,0.08,0.000000,,2013-05-12 08:02:00,
2013-05-11 22:11:00,73.0,66.0,-100.00,East,93,12.0,18.0,78,0.00,,,0.08,0.000000,,2013-05-12 08:11:00,
2013-05-11 22:21:00,73.0,66.0,-100.00,East,93,12.0,18.0,78,0.00,,,0.08,0.000000,,2013-05-12 08:21:00,
2013-05-11 22:31:00,73.0,66.0,-100.00,East,93,12.0,18.0,78,0.00,,,0.08,0.000000,,2013-05-12 08:31:00,
2013-05-11 23:01:00,73.0,65.0,-100.00,ENE,77,11.0,19.0,76,0.00,,,0.08,0.000000,,2013-05-12 09:01:00,
2013-05-11 23:11:00,73.0,65.0,-100.00,ENE,77,11.0,19.0,76,0.00,,,0.08,0.000000,,2013-05-12 09:11:00,
2013-05-11 23:21:00,73.0,65.0,-100.00,ENE,77,11.0,19.0,76,0.00,,,0.08,0.000000,,2013-05-12 09:21:00,
2013-05-11 23:32:00,73.0,65.0,-100.00,ENE,77,11.0,19.0,76,0.00,,,0.08,0.000000,,2013-05-12 09:32:00,